Regional Weather Roundup
Issued by NWS Grand Forks, ND

Home | Current Version | Previous Version | Graphics & Text | Print | Product List | Glossary On
Versions: 1 2 3 4 5 6 7 8 9 10 11 12 13 14 15 16 17 18 19 20 21 22 23 24 25 26 27 28 29 30 31 32 33 34 35 36 37 38 39 40 41 42 43 44 45 46 47 48 49 50
000
ASUS43 KFGF 172231
RWRFGF
PRAIRIE TO PINES  WEATHER ROUNDUP
NATIONAL WEATHER SERVICE EASTERN NORTH DAKOTA/GRAND FORKS ND
500 PM CDT THU APR 17 2014

 **SATELLITE DATA USED TO AUGMENT SKY COVER AT AUTOMATED STATIONS**
 *****  WEATHER ACROSS EASTERN NORTH DAKOTA  *****

CITY           SKY/WX    TMP DP  RH WIND       PRES   REMARKS
GRAND FORKS    FAIR      42   8  24 E9        30.30F
GRAND FRKS AFB FAIR      41  10  27 N8        30.30F
GRAND FRKS NWS   N/A     41 N/A N/A N9          N/A
DEVILS LAKE    FAIR      39  10  30 SE9       30.24F
FARGO          FAIR      44  13  28 W8        30.28F
WAHPETON ARPT  FAIR      43  10  26 CALM      30.28S
$$

 ***** WEATHER ACROSS CENTRAL AND WESTERN NORTH DAKOTA  *****

CITY           SKY/WX    TMP DP  RH WIND       PRES   REMARKS
BISMARCK       CLOUDY    46  19  34 S18       30.17F
MINOT          CLOUDY    42  16  34 SE13      30.16F
JAMESTOWN      FAIR      45  13  27 SE7G17    30.22F
MINOT AFB      CLOUDY    42  19  39 SE12      30.16F
GARRISON         N/A     43  20  39 SE14      30.14F
WILLISTON      CLOUDY    44  26  49 SE15G26   30.06F
DICKINSON      PTSUNNY   43  27  53 SE21G28   30.05F
HETTINGER      MOSUNNY   46  26  45 SE18G24   30.06F
$$

 *****  OTHER AIRPORT OBSERVATIONS IN OUR AREA  *****

CITY           SKY/WX    TMP DP  RH WIND       PRES   REMARKS
WALHALLA         N/A     37   5  25 E9        30.30F
GRAFTON AIRPOR FAIR      37   7  28 NW5       30.30F
VALLEY CITY AR NOT AVBL
CANDO          FAIR      39   9  28 S7G16     30.25F
CAVALIER APRT  FAIR      39   9  28 NE5       30.30F
GWINNER        CLEAR     46  14  27 E6        30.26F
ROLLA          FAIR      36  16  44 S10       30.23F
 ***** THE ABOVE OBSERVATIONS ARE NON NWS ARE NOT QUALITY
       CONTROLLED AND MAY MIS-REPORT RAIN FOR SNOW...
$$

  *****  WEATHER ACROSS NORTHERN MINNESOTA  *****

CITY           SKY/WX    TMP DP  RH WIND       PRES   REMARKS
FLAG ISLAND    FAIR      36   9  32 N5        30.28F
WARROAD        FAIR      36  10  35 E5        30.30S
ROSEAU         FAIR      39   7  26 E7        30.28S
HALLOCK        CLOUDY    39   9  28 NW8       30.30S
THF RVR FALLS  FAIR      39   9  28 W3        30.28S
BAUDETTE       FAIR      38  10  31 N9        30.28S
WASKISH        FAIR      39  14  35 W7        30.25F
CROOKSTON      FAIR      41  16  36 N8        30.29F
$$
  *****  WEATHER ACROSS CENTRAL AND WEST MINNESOTA  *****

CITY           SKY/WX    TMP DP  RH WIND       PRES   REMARKS
FOSSTON        FAIR      45  10  24 CALM      30.27R
BEMIDJI        FAIR      40   2  19 E5        30.24S
PARK RAPIDS    FAIR      44   2  17 VRB3      30.22F
ELBOW LAKE     FAIR      42  15  33 NW5       30.26F
WADENA         FAIR      43  12  28 CALM      30.23F
DETROIT LAKES  FAIR      43  12  28 N6        30.26S
MOORHEAD       FAIR      43   7  22 N2        30.29S
FERGUS FALLS   FAIR      43  10  26 NW5       30.24S
MORRIS MN      FAIR      45  21  39 NW3       30.27S
STAPLES        FAIR      45   9  23 W5        30.23F
$$
  *****  WEATHER ELSEWHERE ACROSS MINNESOTA  *****

CITY           SKY/WX    TMP DP  RH WIND       PRES   REMARKS
DULUTH         CLOUDY    36  21  54 N9        30.23R
INTRNTL FALLS  PTSUNNY   37  16  42 E3        30.26S
ELY            CLOUDY    32  21  64 N5        30.24S
CLOQUET        CLOUDY    37  21  52 NW10      30.25R
WHEATON        FAIR      46  19  34 SW5       30.29F
BRAINERD       FAIR      48  19  31 N6        30.24F
HIBBING        CLOUDY    36  20  52 N8        30.25R
ALEXANDRIA     FAIR      40  16  37 VRB3      30.26F
SAINT CLOUD    FAIR      42  21  43 N5        30.27S
MINNEAPOLIS    FAIR      42  27  55 NW8       30.29R
$$

  *****  WEATHER ACROSS SOUTH DAKOTA  *****

CITY           SKY/WX    TMP DP  RH WIND       PRES   REMARKS
SIOUX FALLS    PTSUNNY   45  21  38 CALM      30.27F
BROOKINGS      NOT AVBL
WATERTOWN      FAIR      39  14  36 NW3       30.26F
HURON          MOSUNNY   45  18  34 E7        30.26F
SISSETON         N/A     42  20  41 S3        30.27F
ABERDEEN       PTSUNNY   45  19  35 S10       30.25F
MITCHELL       CLOUDY    48  16  27 SW6       30.27F
PIERRE         CLOUDY    45  23  42 SE17G23   30.18F
MOBRIDGE       CLOUDY    45  24  43 S16       30.15F
RAPID CITY     SUNNY     52  35  52 S21G28    30.00F
$$

  *****  SOME WEATHER IN NEARBY STATES *****

CITY           SKY/WX    TMP DP  RH WIND       PRES   REMARKS
GLASGOW MT     MOSUNNY   57  30  35 SE17G25   29.86F
GREAT FALLS MT PTSUNNY   57  30  35 SW17      29.75F
CHEYENNE WY    MOSUNNY   56  24  29 S8G17     30.01F
SCOTTSBLUFF NE SUNNY     58  38  47 SE16G28   30.02F
OMAHA NE       FAIR      55  24  30 CALM      30.24F
DES MOINES IA  FAIR      54  29  38 VRB3      30.25F
DAVENPORT IA   FAIR      53  34  48 W8        30.23S
CHICAGO IL     CLOUDY    60  37  42 SW13      30.19R
EAU CLAIRE WI  CLOUDY    39  29  67 NW8       30.27R
LA CROSSE WI   CLOUDY    40  30  67 NW13      30.28R
$$

  *****  SOME NATIONAL WEATHER *****

CITY           SKY/WX    TMP DP  RH WIND       PRES   REMARKS
LA GUARDIA NY  PTSUNNY   46  27  47 E9        30.65F
RALEIGH NC     FAIR      63  32  31 SE8G22    30.44F
ATLANTA GA     PTSUNNY   64  41  42 SE9       30.30F
NEW ORLEANS LA CLOUDY    65  59  81 E13G23    30.14S
OKLAHOMA CITY  LGT RAIN  57  40  52 N12       30.20S
ALBUQUERQUE NM PTSUNNY   68  23  18 N5        30.11F
SALT LAKE CITY PTSUNNY   69  26  20 SE20      29.93F
LOS ANGELES CA CLOUDY    68  53  58 W14       29.88F
BOISE ID       MOSUNNY   73  31  21 SE17      29.74F
SEATTLE WA     LGT RAIN  54  48  82 S15G21    29.80F
$$

*** WEATHER ACROSS MANITOBA...SASKATCHEWAN AND ONTARIO ***
                ***ONTARIO***

CITY           SKY/WX    TMP DP  RH WIND       PRES   REMARKS
GERALDTON      LGT SNOW  30  28  93 E9        30.28S VSB 1   WCI  22
THUNDER BAY    LGT SNOW  32  30  93 NE10G17   30.24  WCI  24
SIOUX LOOKOUT  PTSUNNY   36   9  32 NE8       30.28S
TORONTO        PTSUNNY   46  25  42 E14       30.40F
BIG TROUT LK   SUNNY     32   7  34 S6        30.31F
PICKLE LAKE    PTSUNNY   36   0  21 W2        30.28F
DRYDEN         SUNNY     36   5  27 NE6       30.26F
KENORA         SUNNY     36   1  23 VRB6      30.27F
$$
                *** MANITOBA***

CITY           SKY/WX    TMP DP  RH WIND       PRES   REMARKS
BRANDON        PTSUNNY   36  18  48 E15       30.28F
DAUPHIN          N/A     36  10  35 SE13G20   30.28F
ISLAND LAKE    MOSUNNY   34  12  40 NW5       30.33F
PILOT MOUND      N/A     39   9  28 SE7         N/A
THE PAS        SUNNY     32   7  34 SE8       30.30F WCI  25
THOMPSON       SUNNY     37  12  35 W8        30.28F
WINNIPEG       SUNNY     36   7  30 N7        30.34F
LYNN LAKE      SUNNY     37   1  22 NW5       30.24F
CHURCHILL      PTSUNNY   27  16  63 N14       30.20R WCI  15
GILLAM         MOSUNNY   34  16  47 NW9       30.27F
$$
                ***SASKATCHEWAN***

CITY           SKY/WX    TMP DP  RH WIND       PRES   REMARKS
ESTEVAN        PTSUNNY   41  23  48 SE18      30.11F
KINDERSLEY     PTSUNNY   48  34  57 SE20G30   29.81F
LLOYDMINSTER   LGT SNOW  28  25  86 E15G22    29.92F FOG     WCI  17
PRINCE ALBERT  PTSUNNY   36  19  51 E21G26    30.13F
REGINA         CLOUDY    41  23  48 SE28G37   30.06F
YORKTON        SUNNY     36  14  41 SE18G24   30.19F
N. BATTLEFORD  CLOUDY    32  27  80 E21       29.99S WCI  20
LA RONGE       SUNNY     37  12  35 E16       30.17F
SASKATOON      FLURRIES  36  25  64 SE25G33   30.03F
SWIFT CURRENT  CLOUDY    50  30  46 S20G25    29.84F
$$
NOTE: THESE ARE AUTOMATED STATIONS WITH LIMITED QUALITY CONTROL
      "FAIR" INDICATES FEW OR NO CLOUDS BELOW 12,000 FEET WITH NO
      SIGNIFICANT WEATHER AND/OR OBSTRUCTIONS TO VISIBILITY.
      SKY/WX - SKY CONDITION AND SIGNIFICANT WEATHER.
      TMP - AIR TEMPERATURE.    DP   - DEWPOINT TEMPERATURE.
      RH  - RELATIVE HUMIDITY.  PRES - PRESSURE.
      HX  - HEAT INDEX.         WCI  - WIND CHILL INDEX.
$



USA.gov is the U.S. government's official web portal to all federal, state and local government web resources and services.